Powrót do katalogu

IRIDIUM 157

AktywnyŁącznośćPO
NORAD 43251·PAYLOAD·🇺🇸 United States

Wystrzelony Mar 30, 2018 z Vandenberg Space Force Base

Loading…

Następne Przeloty (najbliższe 24 godziny)

TLE

ŚwieżeSource: CelesTrak SupGP

Epoka: Sep 14, 2026, 20:33 UTC

1 43251C 18030C   26257.85659722  .00003791  00000+0  13555-2 0  2570
2 43251  86.3913 252.9111 0002338  90.1556   2.1242 14.34213400    14

Śledź IRIDIUM 157 w czasie rzeczywistym z AllMySat

Download on the App Store